424  
ASUS41 KRLX 261010  
RWRRLX  
WEST VIRGINIA REGIONAL WEATHER ROUNDUP  
NATIONAL WEATHER SERVICE CHARLESTON WV  
ISSUED BY NATIONAL WEATHER SERVICE PITTSBURGH PA  
600 AM EDT SUN MAR 26 2017  
 
NOTE: "FAIR" INDICATES FEW OR NO CLOUDS BELOW 12,000 FEET WITH NO  
SIGNIFICANT WEATHER AND/OR S TO VISIBILITY
.  
 
WVZ003-261100-  
NORTHERN PANHANDLE OF WEST VIRGINIA  
 
CITY SKY/WX TMP DP RH WIND PRES REMARKS
 
WHEELING CLEAR 60 48 64 E13 30.05F  

 
 
WVZ009-261100-  
NORTHWEST WEST VIRGINIA  
 
CITY SKY/WX TMP DP RH WIND PRES REMARKS
 
PARKERSBURG PTCLDY 61 47 59 SE6 30.05S  

 
 
WVZ006-261100-  
WESTERN WEST VIRGINIA  
 
CITY SKY/WX TMP DP RH WIND PRES REMARKS
 
HUNTINGTON MOCLDY 63 45 51 SE6 29.99S  

 
 
WVZ015-261100-  
WEST CENTRAL WEST VIRGINIA  
 
CITY SKY/WX TMP DP RH WIND PRES REMARKS
 
CHARLESTON CLOUDY 55 47 74 CALM 30.03S  

 
 
WVZ031-261100-  
NORTH CENTRAL WEST VIRGINIA  
 
CITY SKY/WX TMP DP RH WIND PRES REMARKS
 
CLARKSBURG MOCLDY 60 47 61 SE8 30.08F  
MORGANTOWN CLEAR 58 47 66 SE10G18 30.10F  

 
 
WVZ035-042-261100-  
SOUTH CENTRAL WEST VIRGINIA  
 
CITY SKY/WX TMP DP RH WIND PRES REMARKS
 
BECKLEY CLOUDY 55 45 68 SE9 30.10F  
BLUEFIELD CLOUDY 55 44 66 S9 30.13  

 
 
WVZ045-261100-  
GREENBRIER VALLEY OF WEST VIRGINIA  
 
CITY SKY/WX TMP DP RH WIND PRES REMARKS
 
LEWISBURG PTCLDY 48 44 84 CALM 30.15R  

 
 
WVZ047-261100-  
NORTHERN MOUNTAINS OF WEST VIRGINIA  
 
CITY SKY/WX TMP DP RH WIND PRES REMARKS
 
ELKINS CLOUDY 46 42 86 CALM 30.14R  

 
 
WVZ052-261100-  
EASTERN PANHANDLE OF WEST VIRGINIA  
 
CITY SKY/WX TMP DP RH WIND PRES REMARKS
 
MARTINSBURG CLOUDY 49 42 77 E10 30.25R  
PETERSBURG CLEAR 54 48 81 NW6 30.19R  

 
 
 
CLICK HERE TO GO TO PREVIOUS BULLETINS.

The Nexlab WV Page
The Nexlab OH Page
The Nexlab KY Page
The Nexlab VA Page Main Text Page